Location: Unspecified
(43.3830°N, 0.0000°E)
Time: 09:45:25
(UTC+00:00)

N. Korean satellite - Pass Details

Date: 29 November 2020
Orbit: 453 x 502 km, 97.2° (Epoch: 16 January)

Event Time Altitude Azimuth Distance (km) Brightness Sun altitude
Rises 17:11:43 0° 188° (S) 2,452 10.6 -8.3°
Reaches altitude 10° 17:13:53 10° 199° (SSW) 1,587 9.8 -8.7°
Maximum altitude 17:16:56 30° 263° (W) 838 8.6 -9.2°
Drops below altitude 10° 17:20:02 10° 327° (NNW) 1,612 9.4 -9.8°
Sets 17:22:16 0° 338° (NNW) 2,500 10.2 -10.1°
